This is the latest recevied weather packets stored in our database for station/object KE0TNI-13. If no packets are shown the sender has not sent any weather packets the latest 10 day(s).
| Time | Temp. | Humidity | Pressure | Rain* | Wind** | Luminosity | Snow |
|---|---|---|---|---|---|---|---|
| 1778024399 | -2.22° C | 96% | 1012.7 hPa | 0 mm | - | 21 W/m² | - |
| 1778024096 | -1.67° C | 96% | 1012.4 hPa | 0 mm | - | 22 W/m² | - |
| 1778023793 | -1.67° C | 96% | 1012.6 hPa | 0.51 mm | - | 23 W/m² | - |
| 1778023492 | -1.67° C | 96% | 1012.8 hPa | 0.51 mm | - | 15 W/m² | - |
| 1778023188 | -1.11° C | 96% | 1012.4 hPa | 0 mm | - | 17 W/m² | - |
| 1778022886 | -1.11° C | 96% | 1012.7 hPa | 0 mm | - | 13 W/m² | - |
| 1778022584 | -1.11° C | 97% | 1012.7 hPa | 0 mm | - | 16 W/m² | - |
| 1778022281 | -1.11° C | 97% | 1012.2 hPa | 0 mm | - | 30 W/m² | - |
| 1778021977 | -1.67° C | 97% | 1012.1 hPa | 0 mm | - | 22 W/m² | - |
| 1778021674 | -1.67° C | 96% | 1012.4 hPa | 0 mm | - | 17 W/m² | - |
| 1778021370 | -1.67° C | 96% | 1011.9 hPa | 0 mm | - | 12 W/m² | - |
| 1778021068 | -1.67° C | 96% | 1012.2 hPa | 0 mm | - | 8 W/m² | - |
| 1778020765 | -1.67° C | 96% | 1012.3 hPa | 0 mm | - | 6 W/m² | - |
| 1778020462 | -1.67° C | 96% | 1012.4 hPa | 0 mm | - | 5 W/m² | - |
| 1778020158 | -1.67° C | 96% | 1013 hPa | 0 mm | - | 4 W/m² | - |
| 1778019854 | -1.11° C | 96% | 1012.4 hPa | 0 mm | - | 5 W/m² | - |
| 1778019550 | -1.11° C | 96% | 1012.2 hPa | 0 mm | - | 12 W/m² | - |
| 1778019248 | -1.11° C | 96% | 1012.1 hPa | 0 mm | - | 21 W/m² | - |
| 1778018945 | -1.67° C | 96% | 1011.9 hPa | 0 mm | - | 20 W/m² | - |
| 1778018641 | -1.11° C | 96% | 1012.1 hPa | 0.51 mm | - | 12 W/m² | - |
| 1778018339 | -1.11° C | 96% | 1012.2 hPa | 0.51 mm | - | 10 W/m² | - |
| 1778018037 | -1.11° C | 96% | 1012.2 hPa | 0 mm | - | 23 W/m² | - |
| 1778017735 | -1.11° C | 96% | 1012.3 hPa | 0 mm | - | 33 W/m² | - |
| 1778017432 | -1.11° C | 96% | 1012.2 hPa | 0 mm | - | 36 W/m² | - |
| 1778017129 | -1.11° C | 96% | 1012.1 hPa | 1.27 mm | - | 55 W/m² | - |
* Rain latest hour (hover to see other rain measurements)
** Current wind speed in m/s (hover to see current wind gust speed)